Time,TemperatureF,DewpointF,PressureIn,WindDirection,WindDirectionDegrees,WindSpeedMPH,WindSpeedGustMPH,Humidity,HourlyPrecipIn,Conditions,Clouds,dailyrainin,SoftwareType,DateUTC
2013-03-26 00:03:00,37.0,25.0,-100.00,SSW,193,9.0,18.0,61,0.00,,,0.79,,2013-03-26 04:03:00,
2013-03-26 00:13:00,37.0,25.0,-100.00,SSW,193,9.0,18.0,61,0.00,,,0.79,,2013-03-26 04:13:00,
2013-03-26 00:23:00,37.0,25.0,-100.00,South,189,8.0,12.0,61,0.00,,,0.79,,2013-03-26 04:23:00,
2013-03-26 00:33:00,37.0,24.0,-100.00,SSW,193,9.0,15.0,59,0.00,,,0.79,,2013-03-26 04:33:00,
2013-03-26 00:43:00,37.0,24.0,-100.00,SSW,193,9.0,15.0,59,0.00,,,0.79,,2013-03-26 04:43:00,
2013-03-26 00:53:00,37.0,25.0,-100.00,South,191,8.0,15.0,60,0.00,,,0.78,,2013-03-26 04:53:00,
2013-03-26 01:02:00,37.0,25.0,-100.00,South,191,8.0,15.0,60,0.00,,,0.78,,2013-03-26 05:02:00,
2013-03-26 01:12:00,37.0,25.0,-100.00,South,191,8.0,15.0,60,0.00,,,0.78,,2013-03-26 05:12:00,
2013-03-26 01:22:00,38.0,25.0,-100.00,SSW,193,10.0,18.0,59,0.00,,,0.73,,2013-03-26 05:22:00,
2013-03-26 01:32:00,38.0,25.0,-100.00,SSW,196,10.0,15.0,60,0.00,,,0.62,,2013-03-26 05:32:00,
2013-03-26 01:42:00,38.0,25.0,-100.00,SSW,196,10.0,15.0,60,0.00,,,0.62,,2013-03-26 05:42:00,
2013-03-26 01:52:00,38.0,25.0,-100.00,SSW,196,10.0,15.0,60,0.00,,,0.62,,2013-03-26 05:52:00,
2013-03-26 02:02:00,38.0,25.0,-100.00,SSW,192,10.0,19.0,60,0.00,,,0.57,,2013-03-26 06:02:00,
2013-03-26 02:12:00,38.0,25.0,-100.00,SSW,192,10.0,19.0,60,0.00,,,0.57,,2013-03-26 06:12:00,
2013-03-26 02:22:00,38.0,25.0,-100.00,SSW,198,9.0,14.0,60,0.00,,,0.51,,2013-03-26 06:22:00,
2013-03-26 02:32:00,38.0,25.0,-100.00,SSW,198,9.0,14.0,60,0.00,,,0.51,,2013-03-26 06:32:00,
2013-03-26 02:42:00,38.0,25.0,-100.00,South,189,9.0,15.0,61,0.00,,,0.39,,2013-03-26 06:42:00,
2013-03-26 02:53:00,38.0,25.0,-100.00,South,189,9.0,15.0,61,0.00,,,0.39,,2013-03-26 06:53:00,
2013-03-26 03:02:00,37.0,25.0,-100.00,SSW,192,8.0,15.0,60,0.00,,,0.34,,2013-03-26 07:02:00,
2013-03-26 03:12:00,37.0,25.0,-100.00,SSW,192,8.0,15.0,60,0.00,,,0.34,,2013-03-26 07:12:00,
2013-03-26 03:22:00,38.0,25.0,-100.00,SSW,198,8.0,14.0,59,0.00,,,0.27,,2013-03-26 07:22:00,
2013-03-26 03:33:00,38.0,25.0,-100.00,SSW,198,8.0,14.0,59,0.00,,,0.27,,2013-03-26 07:33:00,
2013-03-26 03:43:00,37.0,25.0,-100.00,SSW,192,8.0,14.0,60,0.00,,,0.24,,2013-03-26 07:43:00,
2013-03-26 03:53:00,37.0,25.0,-100.00,SSW,192,8.0,14.0,60,0.00,,,0.24,,2013-03-26 07:53:00,
2013-03-26 04:02:00,38.0,24.0,-100.00,SSW,195,10.0,19.0,58,0.00,,,0.24,,2013-03-26 08:02:00,
2013-03-26 04:13:00,38.0,24.0,-100.00,SSW,195,10.0,19.0,58,0.00,,,0.24,,2013-03-26 08:13:00,
2013-03-26 04:22:00,37.0,25.0,-100.00,South,186,7.0,12.0,61,0.00,,,0.23,,2013-03-26 08:22:00,
2013-03-26 04:32:00,37.0,25.0,-100.00,South,186,7.0,12.0,61,0.00,,,0.23,,2013-03-26 08:32:00,
2013-03-26 04:42:00,37.0,25.0,-100.00,South,189,4.0,7.0,62,0.00,,,0.18,,2013-03-26 08:42:00,
2013-03-26 04:52:00,37.0,25.0,-100.00,South,189,4.0,7.0,62,0.00,,,0.18,,2013-03-26 08:52:00,
2013-03-26 05:02:00,36.0,26.0,-100.00,SSW,192,3.0,5.0,65,0.00,,,0.13,,2013-03-26 09:02:00,
2013-03-26 05:12:00,36.0,26.0,-100.00,SSW,192,3.0,5.0,65,0.00,,,0.13,,2013-03-26 09:12:00,
2013-03-26 05:22:00,34.0,25.0,-100.00,NW,308,0.0,2.0,71,0.00,,,0.06,,2013-03-26 09:22:00,
2013-03-26 05:33:00,34.0,25.0,-100.00,ENE,68,1.0,3.0,70,0.00,,,0.04,,2013-03-26 09:33:00,
2013-03-26 05:43:00,34.0,25.0,-100.00,ENE,68,1.0,3.0,70,0.00,,,0.04,,2013-03-26 09:43:00,
2013-03-26 05:52:00,34.0,25.0,-100.00,ENE,68,1.0,3.0,70,0.00,,,0.04,,2013-03-26 09:52:00,
2013-03-26 06:03:00,34.0,26.0,-100.00,ESE,123,0.0,2.0,72,0.00,,,0.04,,2013-03-26 10:03:00,
2013-03-26 06:12:00,34.0,26.0,-100.00,ESE,123,0.0,2.0,72,0.00,,,0.04,,2013-03-26 10:12:00,
2013-03-26 06:22:00,33.0,26.0,-100.00,SW,229,0.0,2.0,73,0.00,,,0.04,,2013-03-26 10:22:00,
2013-03-26 06:33:00,33.0,26.0,-100.00,SW,229,0.0,2.0,73,0.00,,,0.04,,2013-03-26 10:33:00,
2013-03-26 06:42:00,33.0,25.0,-100.00,WNW,299,0.0,1.0,74,0.00,,,0.04,,2013-03-26 10:42:00,
2013-03-26 06:53:00,33.0,25.0,-100.00,WNW,299,0.0,1.0,74,0.00,,,0.04,,2013-03-26 10:53:00,
2013-03-26 07:03:00,33.0,26.0,-100.00,WSW,244,1.0,3.0,73,0.00,,,0.03,,2013-03-26 11:03:00,
2013-03-26 07:12:00,33.0,26.0,-100.00,WSW,244,1.0,3.0,73,0.00,,,0.03,,2013-03-26 11:12:00,
2013-03-26 07:22:00,33.0,26.0,-100.00,WSW,257,1.0,3.0,75,0.00,,,0.03,,2013-03-26 11:22:00,
2013-03-26 07:33:00,33.0,26.0,-100.00,WSW,251,1.0,3.0,76,0.00,,,0.02,,2013-03-26 11:33:00,
2013-03-26 07:42:00,33.0,26.0,-100.00,WSW,251,1.0,3.0,76,0.00,,,0.02,,2013-03-26 11:42:00,
2013-03-26 07:52:00,33.0,26.0,-100.00,WSW,251,1.0,3.0,76,0.00,,,0.02,,2013-03-26 11:52:00,
2013-03-26 08:03:00,34.0,26.0,-100.00,SSW,203,2.0,3.0,72,0.00,,,0.02,,2013-03-26 12:03:00,
2013-03-26 08:12:00,34.0,26.0,-100.00,SSW,203,2.0,3.0,72,0.00,,,0.02,,2013-03-26 12:12:00,
2013-03-26 08:22:00,35.0,27.0,-100.00,West,267,2.0,4.0,73,0.00,,,0.02,,2013-03-26 12:22:00,
2013-03-26 08:32:00,35.0,27.0,-100.00,West,267,2.0,4.0,73,0.00,,,0.02,,2013-03-26 12:32:00,
2013-03-26 08:42:00,36.0,27.0,-100.00,WSW,248,1.0,2.0,72,0.00,,,0.02,,2013-03-26 12:42:00,
2013-03-26 08:52:00,36.0,27.0,-100.00,WSW,248,1.0,2.0,72,0.00,,,0.02,,2013-03-26 12:52:00,
2013-03-26 09:03:00,36.0,27.0,-100.00,SSW,208,3.0,5.0,69,0.00,,,0.02,,2013-03-26 13:03:00,
2013-03-26 09:12:00,36.0,27.0,-100.00,SSW,208,3.0,5.0,69,0.00,,,0.02,,2013-03-26 13:12:00,
2013-03-26 09:23:00,38.0,27.0,-100.00,South,191,8.0,15.0,62,0.00,,,0.02,,2013-03-26 13:23:00,
2013-03-26 09:32:00,38.0,27.0,-100.00,South,191,8.0,15.0,62,0.00,,,0.02,,2013-03-26 13:32:00,
2013-03-26 09:42:00,40.0,26.0,-100.00,SSW,200,9.0,19.0,57,0.00,,,0.02,,2013-03-26 13:42:00,
2013-03-26 09:52:00,41.0,26.0,-100.00,SSW,196,10.0,17.0,56,0.00,,,0.01,,2013-03-26 13:52:00,
2013-03-26 10:02:00,41.0,26.0,-100.00,SSW,196,10.0,17.0,56,0.00,,,0.01,,2013-03-26 14:02:00,
2013-03-26 10:12:00,41.0,26.0,-100.00,SSW,196,10.0,17.0,56,0.00,,,0.01,,2013-03-26 14:12:00,
2013-03-26 10:23:00,42.0,27.0,-100.00,SSW,195,9.0,19.0,55,0.00,,,0.00,,2013-03-26 14:23:00,
2013-03-26 10:33:00,42.0,27.0,-100.00,SSW,195,9.0,19.0,55,0.00,,,0.00,,2013-03-26 14:33:00,
2013-03-26 10:42:00,42.0,26.0,-100.00,SSW,200,9.0,17.0,53,0.00,,,0.00,,2013-03-26 14:42:00,
2013-03-26 10:52:00,42.0,26.0,-100.00,SSW,200,9.0,17.0,53,0.00,,,0.00,,2013-03-26 14:52:00,
2013-03-26 11:02:00,42.0,26.0,-100.00,SSW,203,6.0,14.0,53,0.00,,,0.00,,2013-03-26 15:02:00,
2013-03-26 11:12:00,42.0,26.0,-100.00,SSW,203,6.0,14.0,53,0.00,,,0.00,,2013-03-26 15:12:00,
2013-03-26 11:22:00,42.0,26.0,-100.00,SSW,195,5.0,11.0,53,0.00,,,0.00,,2013-03-26 15:22:00,
2013-03-26 11:33:00,42.0,26.0,-100.00,SSW,195,5.0,11.0,53,0.00,,,0.00,,2013-03-26 15:33:00,
2013-03-26 11:43:00,42.0,25.0,-100.00,SSW,199,7.0,13.0,51,0.00,,,0.00,,2013-03-26 15:43:00,
2013-03-26 11:53:00,42.0,25.0,-100.00,SSW,199,7.0,13.0,51,0.00,,,0.00,,2013-03-26 15:53:00,
2013-03-26 12:03:00,44.0,25.0,-100.00,SSW,195,7.0,14.0,46,0.00,,,0.00,,2013-03-26 16:03:00,
2013-03-26 12:13:00,44.0,25.0,-100.00,SSW,195,7.0,14.0,46,0.00,,,0.00,,2013-03-26 16:13:00,
2013-03-26 12:23:00,44.0,26.0,-100.00,SSW,199,5.0,9.0,49,0.00,,,0.00,,2013-03-26 16:23:00,
2013-03-26 12:33:00,44.0,26.0,-100.00,SSW,199,5.0,9.0,49,0.00,,,0.00,,2013-03-26 16:33:00,
2013-03-26 12:42:00,42.0,25.0,-100.00,SSW,203,7.0,14.0,50,0.00,,,0.00,,2013-03-26 16:42:00,
2013-03-26 12:54:00,42.0,25.0,-100.00,SSW,203,7.0,14.0,50,0.00,,,0.00,,2013-03-26 16:54:00,
2013-03-26 13:03:00,44.0,24.0,-100.00,SSW,203,5.0,13.0,47,0.00,,,0.00,,2013-03-26 17:03:00,
2013-03-26 13:12:00,44.0,24.0,-100.00,SSW,203,5.0,13.0,47,0.00,,,0.00,,2013-03-26 17:12:00,
2013-03-26 13:23:00,43.0,25.0,-100.00,SSW,206,5.0,12.0,49,0.00,,,0.00,,2013-03-26 17:23:00,
2013-03-26 13:33:00,43.0,25.0,-100.00,SSW,206,5.0,12.0,49,0.00,,,0.00,,2013-03-26 17:33:00,
2013-03-26 13:42:00,43.0,25.0,-100.00,West,272,3.0,10.0,49,0.00,,,0.00,,2013-03-26 17:42:00,
2013-03-26 13:53:00,43.0,25.0,-100.00,West,272,3.0,10.0,49,0.00,,,0.00,,2013-03-26 17:53:00,
2013-03-26 14:03:00,43.0,25.0,-100.00,SSW,203,5.0,11.0,49,0.00,,,0.00,,2013-03-26 18:03:00,
2013-03-26 14:12:00,43.0,25.0,-100.00,SSW,203,5.0,11.0,49,0.00,,,0.00,,2013-03-26 18:12:00,
2013-03-26 14:23:00,44.0,25.0,-100.00,SW,216,4.0,11.0,46,0.00,,,0.00,,2013-03-26 18:23:00,
2013-03-26 14:34:00,44.0,25.0,-100.00,SW,216,4.0,11.0,46,0.00,,,0.00,,2013-03-26 18:34:00,
2013-03-26 14:42:00,44.0,25.0,-100.00,SW,216,4.0,11.0,46,0.00,,,0.00,,2013-03-26 18:42:00,
2013-03-26 14:52:00,42.0,25.0,-100.00,SW,217,7.0,15.0,51,0.01,,,0.00,,2013-03-26 18:52:00,
2013-03-26 15:03:00,43.0,26.0,-100.00,SSW,202,3.0,6.0,50,0.00,,,0.00,,2013-03-26 19:03:00,
2013-03-26 15:12:00,43.0,26.0,-100.00,SSW,202,3.0,6.0,50,0.00,,,0.00,,2013-03-26 19:12:00,
2013-03-26 15:22:00,44.0,24.0,-100.00,SSW,193,7.0,15.0,46,0.00,,,0.00,,2013-03-26 19:22:00,
2013-03-26 15:33:00,45.0,24.0,-100.00,SSW,199,9.0,17.0,43,0.00,,,0.00,,2013-03-26 19:33:00,
2013-03-26 15:42:00,45.0,24.0,-100.00,SSW,199,9.0,17.0,43,0.00,,,0.00,,2013-03-26 19:42:00,
2013-03-26 15:53:00,45.0,24.0,-100.00,SSW,199,9.0,17.0,43,0.00,,,0.00,,2013-03-26 19:53:00,
2013-03-26 16:02:00,44.0,23.0,-100.00,SSW,203,8.0,18.0,43,0.00,,,0.00,,2013-03-26 20:02:00,
2013-03-26 16:13:00,44.0,23.0,-100.00,SSW,203,8.0,18.0,43,0.00,,,0.00,,2013-03-26 20:13:00,
2013-03-26 16:23:00,45.0,23.0,-100.00,SSW,203,7.0,13.0,42,0.00,,,0.00,,2013-03-26 20:23:00,
2013-03-26 16:32:00,45.0,23.0,-100.00,SSW,203,7.0,13.0,42,0.00,,,0.00,,2013-03-26 20:32:00,
2013-03-26 16:43:00,43.0,26.0,-100.00,SSW,195,7.0,16.0,50,0.00,,,0.00,,2013-03-26 20:43:00,
2013-03-26 16:53:00,43.0,26.0,-100.00,SSW,195,7.0,16.0,50,0.00,,,0.00,,2013-03-26 20:53:00,
2013-03-26 17:02:00,44.0,26.0,-100.00,SSW,196,7.0,13.0,50,0.00,,,0.00,,2013-03-26 21:02:00,
2013-03-26 17:13:00,44.0,26.0,-100.00,SSW,196,7.0,13.0,50,0.00,,,0.00,,2013-03-26 21:13:00,
2013-03-26 17:22:00,45.0,23.0,-100.00,SSW,198,8.0,15.0,41,0.00,,,0.00,,2013-03-26 21:22:00,
2013-03-26 17:33:00,45.0,23.0,-100.00,SSW,198,8.0,15.0,41,0.00,,,0.00,,2013-03-26 21:33:00,
2013-03-26 17:43:00,44.0,23.0,-100.00,SSW,198,8.0,16.0,43,0.00,,,0.00,,2013-03-26 21:43:00,
2013-03-26 17:52:00,44.0,23.0,-100.00,SSW,198,8.0,16.0,43,0.00,,,0.00,,2013-03-26 21:52:00,
2013-03-26 18:02:00,47.0,24.0,-100.00,SSW,198,7.0,13.0,40,0.00,,,0.00,,2013-03-26 22:02:00,
2013-03-26 18:12:00,47.0,24.0,-100.00,SSW,198,7.0,13.0,40,0.00,,,0.00,,2013-03-26 22:12:00,
2013-03-26 18:22:00,47.0,22.0,-100.00,SSW,193,6.0,12.0,36,0.00,,,0.00,,2013-03-26 22:22:00,
2013-03-26 18:33:00,46.0,21.0,-100.00,SSW,195,7.0,12.0,38,0.00,,,0.00,,2013-03-26 22:33:00,
2013-03-26 18:42:00,46.0,21.0,-100.00,SSW,195,7.0,12.0,38,0.00,,,0.00,,2013-03-26 22:42:00,
2013-03-26 18:53:00,46.0,21.0,-100.00,SSW,195,7.0,12.0,38,0.00,,,0.00,,2013-03-26 22:53:00,
2013-03-26 19:01:00,44.0,22.0,-100.00,SSW,205,8.0,13.0,40,0.00,,,0.00,,2013-03-26 23:01:00,
2013-03-26 19:10:00,44.0,22.0,-100.00,SSW,205,8.0,13.0,40,0.00,,,0.00,,2013-03-26 23:10:00,
2013-03-26 19:22:00,44.0,22.0,-100.00,SSW,196,6.0,12.0,43,0.00,,,0.00,,2013-03-26 23:22:00,
2013-03-26 19:32:00,44.0,22.0,-100.00,SSW,196,6.0,12.0,43,0.00,,,0.00,,2013-03-26 23:32:00,
2013-03-26 19:42:00,43.0,23.0,-100.00,SSW,210,5.0,12.0,44,0.00,,,0.00,,2013-03-26 23:42:00,
2013-03-26 19:53:00,43.0,23.0,-100.00,SSW,210,5.0,12.0,44,0.00,,,0.00,,2013-03-26 23:53:00,
2013-03-26 20:02:00,42.0,23.0,-100.00,West,268,2.0,6.0,46,0.00,,,0.00,,2013-03-27 00:02:00,
2013-03-26 20:12:00,42.0,23.0,-100.00,West,268,2.0,6.0,46,0.00,,,0.00,,2013-03-27 00:12:00,
2013-03-26 20:22:00,42.0,23.0,-100.00,West,268,2.0,6.0,46,0.00,,,0.00,,2013-03-27 00:22:00,
2013-03-26 20:33:00,42.0,25.0,-100.00,SSW,205,7.0,12.0,52,0.00,,,0.00,,2013-03-27 00:33:00,
2013-03-26 20:42:00,41.0,26.0,-100.00,SSW,193,8.0,14.0,55,0.00,,,0.00,,2013-03-27 00:42:00,
2013-03-26 20:52:00,41.0,26.0,-100.00,SSW,193,8.0,14.0,55,0.00,,,0.00,,2013-03-27 00:52:00,
2013-03-26 21:02:00,41.0,26.0,-100.00,SSW,195,5.0,11.0,55,0.00,,,0.00,,2013-03-27 01:02:00,
2013-03-26 21:12:00,41.0,26.0,-100.00,SSW,195,5.0,11.0,55,0.00,,,0.00,,2013-03-27 01:12:00,
2013-03-26 21:23:00,40.0,27.0,-100.00,South,189,3.0,6.0,60,0.00,,,0.00,,2013-03-27 01:23:00,
2013-03-26 21:33:00,40.0,27.0,-100.00,SSW,192,3.0,6.0,59,0.00,,,0.00,,2013-03-27 01:33:00,
2013-03-26 21:42:00,40.0,27.0,-100.00,SSW,192,3.0,6.0,59,0.00,,,0.00,,2013-03-27 01:42:00,
2013-03-26 21:53:00,40.0,27.0,-100.00,SSW,192,3.0,6.0,59,0.00,,,0.00,,2013-03-27 01:53:00,
2013-03-26 22:03:00,39.0,28.0,-100.00,SSW,192,4.0,8.0,63,0.00,,,0.00,,2013-03-27 02:03:00,
2013-03-26 22:12:00,39.0,28.0,-100.00,SSW,192,4.0,8.0,63,0.00,,,0.00,,2013-03-27 02:12:00,
2013-03-26 22:22:00,40.0,27.0,-100.00,South,191,5.0,10.0,60,0.00,,,0.00,,2013-03-27 02:22:00,
2013-03-26 22:32:00,40.0,27.0,-100.00,South,191,5.0,10.0,60,0.00,,,0.00,,2013-03-27 02:32:00,
2013-03-26 22:42:00,40.0,27.0,-100.00,South,186,4.0,8.0,61,0.00,,,0.00,,2013-03-27 02:42:00,
2013-03-26 22:53:00,40.0,27.0,-100.00,South,186,4.0,8.0,61,0.00,,,0.00,,2013-03-27 02:53:00,
2013-03-26 23:02:00,38.0,28.0,-100.00,SSW,208,2.0,4.0,67,0.00,,,0.00,,2013-03-27 03:02:00,
2013-03-26 23:12:00,38.0,28.0,-100.00,SSW,208,2.0,4.0,67,0.00,,,0.00,,2013-03-27 03:12:00,
2013-03-26 23:22:00,37.0,27.0,-100.00,South,175,0.0,2.0,69,0.00,,,0.00,,2013-03-27 03:22:00,
2013-03-26 23:33:00,37.0,27.0,-100.00,South,175,0.0,2.0,69,0.00,,,0.00,,2013-03-27 03:33:00,
2013-03-26 23:42:00,37.0,27.0,-100.00,West,268,0.0,2.0,66,0.00,,,0.00,,2013-03-27 03:42:00,
2013-03-26 23:53:00,37.0,27.0,-100.00,West,268,0.0,2.0,66,0.00,,,0.00,,2013-03-27 03:53:00,